| time (UTC) | temp C | wind direction | speed KPH | gust KPH | rain 1hr cm | rain 24hr cm | rain mn cm | humidity % | barometer mb |
| 20260505140259 | 18 | 240 | 3.2 | 4.8 | 0.00 | 0.00 | 0.00 | 54 | 1012.0 |
| 20260505130223 | 17 | 235 | 3.2 | 3.2 | 0.00 | 0.00 | 0.00 | 56 | 1011.5 |
| 20260505124713 | 17 | 244 | 3.2 | 3.2 | 0.00 | 0.00 | 0.00 | 56 | 1011.2 |
| 20260505124210 | 17 | 251 | 0.0 | 0.0 | 0.00 | 0.00 | 0.00 | 55 | 1011.2 |
| 20260505123705 | 17 | 237 | 8.0 | 9.7 | 0.00 | 0.00 | 0.00 | 55 | 1011.4 |
| 20260505123203 | 17 | 262 | 3.2 | 6.4 | 0.00 | 0.00 | 0.00 | 54 | 1011.1 |
| 20260505122659 | 17 | 273 | 1.6 | 1.6 | 0.00 | 0.00 | 0.00 | 54 | 1011.3 |
| 20260505122156 | 17 | 231 | 3.2 | 3.2 | 0.00 | 0.00 | 0.00 | 55 | 1011.2 |
| 20260505121653 | 17 | 266 | 0.0 | 1.6 | 0.00 | 0.00 | 0.00 | 55 | 1011.2 |
| 20260505121149 | 17 | 235 | 1.6 | 1.6 | 0.00 | 0.00 | 0.00 | 55 | 1011.2 |
| 20260505120645 | 17 | 220 | 1.6 | 1.6 | 0.00 | 0.00 | 0.00 | 55 | 1011.3 |
| 20260505120141 | 17 | 274 | 0.0 | 1.6 | 0.00 | 0.00 | 0.00 | 54 | 1011.3 |
| 20260505115635 | 17 | 237 | 3.2 | 3.2 | 0.00 | 0.00 | 0.00 | 54 | 1010.8 |
| 20260505115134 | 17 | 226 | 3.2 | 4.8 | 0.00 | 0.00 | 0.00 | 54 | 1010.8 |
| 20260505114630 | 17 | 218 | 4.8 | 4.8 | 0.00 | 0.00 | 0.00 | 54 | 1011.0 |
| 20260505114127 | 17 | 266 | 0.0 | 1.6 | 0.00 | 0.00 | 0.00 | 54 | 1011.0 |
| 20260505113623 | 18 | 260 | 1.6 | 1.6 | 0.00 | 0.00 | 0.00 | 53 | 1010.7 |
| 20260505113120 | 18 | 272 | 3.2 | 4.8 | 0.00 | 0.00 | 0.00 | 52 | 1010.9 |
| 20260505112616 | 18 | 242 | 3.2 | 3.2 | 0.00 | 0.00 | 0.00 | 52 | 1010.9 |
| 20260505112114 | 18 | 211 | 1.6 | 3.2 | 0.00 | 0.00 | 0.00 | 52 | 1010.9 |
| 20260505111608 | 18 | 210 | 1.6 | 3.2 | 0.00 | 0.00 | 0.00 | 52 | 1010.7 |
| 20260505111104 | 18 | 223 | 4.8 | 4.8 | 0.00 | 0.00 | 0.00 | 51 | 1010.8 |
| 20260505110601 | 18 | 213 | 3.2 | 4.8 | 0.00 | 0.00 | 0.00 | 51 | 1011.0 |
| 20260505102033 | 18 | 200 | 1.6 | 1.6 | 0.00 | 0.00 | 0.00 | 51 | 1011.1 |
| 20260505101532 | 19 | 240 | 4.8 | 6.4 | 0.00 | 0.00 | 0.00 | 51 | 1011.3 |
| 20260505101028 | 19 | 218 | 4.8 | 4.8 | 0.00 | 0.00 | 0.00 | 50 | 1011.3 |
| 20260505100525 | 19 | 231 | 3.2 | 3.2 | 0.00 | 0.00 | 0.00 | 49 | 1011.4 |
| 20260505100022 | 19 | 273 | 3.2 | 3.2 | 0.00 | 0.00 | 0.00 | 49 | 1011.5 |
| 20260505095518 | 19 | 233 | 6.4 | 6.4 | 0.00 | 0.00 | 0.00 | 48 | 1011.7 |
| 20260505095014 | 19 | 220 | 6.4 | 11.3 | 0.00 | 0.00 | 0.00 | 48 | 1011.7 |
| 20260505094511 | 20 | 219 | 4.8 | 6.4 | 0.00 | 0.00 | 0.00 | 47 | 1011.8 |
| 20260505094007 | 20 | 262 | 1.6 | 3.2 | 0.00 | 0.00 | 0.00 | 47 | 1011.8 |
| 20260505093503 | 20 | 244 | 3.2 | 4.8 | 0.00 | 0.00 | 0.00 | 46 | 1011.7 |
| 20260505093001 | 20 | 191 | 6.4 | 9.7 | 0.00 | 0.00 | 0.00 | 46 | 1011.8 |
| 20260505092458 | 20 | 273 | 3.2 | 4.8 | 0.00 | 0.00 | 0.00 | 45 | 1011.8 |
| 20260505091956 | 20 | 307 | 3.2 | 4.8 | 0.00 | 0.00 | 0.00 | 45 | 1012.0 |
| 20260505091453 | 20 | 260 | 6.4 | 6.4 | 0.00 | 0.00 | 0.00 | 44 | 1011.9 |
| 20260505090951 | 20 | 268 | 4.8 | 6.4 | 0.00 | 0.00 | 0.00 | 43 | 1011.8 |
| 20260505090449 | 20 | 291 | 6.4 | 9.7 | 0.00 | 0.00 | 0.00 | 43 | 1011.7 |
| 20260505085946 | 20 | 272 | 11.3 | 14.5 | 0.00 | 0.00 | 0.00 | 42 | 1011.8 |
| 20260505085444 | 20 | 258 | 4.8 | 4.8 | 0.00 | 0.00 | 0.00 | 41 | 1011.8 |
| 20260505084942 | 20 | 246 | 3.2 | 4.8 | 0.00 | 0.00 | 0.00 | 41 | 1012.2 |
| 20260505084440 | 20 | 269 | 3.2 | 3.2 | 0.00 | 0.00 | 0.00 | 41 | 1012.0 |
| 20260505083937 | 20 | 184 | 3.2 | 4.8 | 0.00 | 0.00 | 0.00 | 40 | 1012.0 |
| 20260505083435 | 20 | 184 | 4.8 | 4.8 | 0.00 | 0.00 | 0.00 | 40 | 1012.3 |
| 20260505082931 | 20 | 266 | 6.4 | 6.4 | 0.00 | 0.00 | 0.00 | 39 | 1012.3 |
| 20260505082427 | 20 | 149 | 4.8 | 6.4 | 0.00 | 0.00 | 0.00 | 38 | 1012.3 |
| 20260505081924 | 20 | 222 | 3.2 | 4.8 | 0.00 | 0.00 | 0.00 | 38 | 1012.2 |
| 20260505081421 | 20 | 222 | 4.8 | 6.4 | 0.00 | 0.00 | 0.00 | 38 | 1012.4 |
| 20260505080917 | 21 | 259 | 3.2 | 4.8 | 0.00 | 0.00 | 0.00 | 38 | 1012.3 |
| 20260505080413 | 21 | 185 | 6.4 | 11.3 | 0.00 | 0.00 | 0.00 | 38 | 1012.2 |
| 20260505075909 | 21 | 252 | 3.2 | 4.8 | 0.00 | 0.00 | 0.00 | 38 | 1012.4 |
| 20260505075406 | 21 | 292 | 3.2 | 4.8 | 0.00 | 0.00 | 0.00 | 38 | 1012.3 |
| 20260505074903 | 21 | 200 | 8.0 | 12.9 | 0.00 | 0.00 | 0.00 | 38 | 1012.4 |
| 20260505074400 | 21 | 229 | 8.0 | 11.3 | 0.00 | 0.00 | 0.00 | 38 | 1012.2 |
| 20260505073857 | 21 | 184 | 4.8 | 4.8 | 0.00 | 0.00 | 0.00 | 39 | 1012.4 |
| 20260505073355 | 21 | 239 | 1.6 | 1.6 | 0.00 | 0.00 | 0.00 | 39 | 1012.0 |
| 20260505072852 | 21 | 258 | 3.2 | 3.2 | 0.00 | 0.00 | 0.00 | 39 | 1011.8 |
| 20260505072348 | 21 | 209 | 4.8 | 4.8 | 0.00 | 0.00 | 0.00 | 40 | 1012.2 |
| 20260505071844 | 21 | 270 | 1.6 | 1.6 | 0.00 | 0.00 | 0.00 | 40 | 1012.3 |
| 20260505071341 | 21 | 255 | 1.6 | 1.6 | 0.00 | 0.00 | 0.00 | 41 | 1012.2 |
| 20260505070839 | 21 | 245 | 1.6 | 1.6 | 0.00 | 0.00 | 0.00 | 41 | 1012.2 |
| 20260505070335 | 21 | 267 | 3.2 | 3.2 | 0.00 | 0.00 | 0.00 | 41 | 1012.2 |
| 20260505065830 | 21 | 234 | 3.2 | 4.8 | 0.00 | 0.00 | 0.00 | 41 | 1011.9 |
| 20260505065327 | 21 | 200 | 3.2 | 3.2 | 0.00 | 0.00 | 0.00 | 41 | 1012.3 |
| 20260505064824 | 21 | 231 | 3.2 | 4.8 | 0.00 | 0.00 | 0.00 | 40 | 1012.0 |
| 20260505064321 | 21 | 278 | 1.6 | 3.2 | 0.00 | 0.00 | 0.00 | 41 | 1012.0 |
| 20260505063820 | 21 | 261 | 4.8 | 4.8 | 0.00 | 0.00 | 0.00 | 41 | 1012.0 |
| 20260505063315 | 21 | 272 | 1.6 | 3.2 | 0.00 | 0.00 | 0.00 | 41 | 1012.2 |
| 20260505062812 | 21 | 255 | 1.6 | 1.6 | 0.00 | 0.00 | 0.00 | 42 | 1011.9 |
| 20260505062310 | 21 | 256 | 1.6 | 1.6 | 0.00 | 0.00 | 0.00 | 42 | 1011.9 |
| 20260505061806 | 21 | 242 | 1.6 | 3.2 | 0.00 | 0.00 | 0.00 | 42 | 1012.2 |
| 20260505061304 | 21 | 277 | 0.0 | 0.0 | 0.00 | 0.00 | 0.00 | 43 | 1011.9 |
| 20260505060802 | 21 | 266 | 0.0 | 0.0 | 0.00 | 0.00 | 0.00 | 43 | 1011.8 |
| 20260505060259 | 21 | 272 | 0.0 | 0.0 | 0.00 | 0.00 | 0.00 | 43 | 1011.9 |
| 20260505055754 | 21 | 250 | 1.6 | 1.6 | 0.00 | 0.00 | 0.00 | 42 | 1011.9 |
| 20260505055250 | 21 | 215 | 1.6 | 1.6 | 0.00 | 0.00 | 0.00 | 42 | 1012.0 |
| 20260505054748 | 21 | 174 | 1.6 | 1.6 | 0.00 | 0.00 | 0.00 | 41 | 1011.8 |
| 20260505054245 | 21 | 230 | 3.2 | 3.2 | 0.00 | 0.00 | 0.00 | 41 | 1012.0 |
| 20260505053744 | 21 | 251 | 1.6 | 1.6 | 0.00 | 0.00 | 0.00 | 41 | 1011.8 |
| 20260505053240 | 21 | 237 | 1.6 | 1.6 | 0.00 | 0.00 | 0.00 | 41 | 1012.2 |
| 20260505052737 | 21 | 257 | 0.0 | 0.0 | 0.00 | 0.00 | 0.00 | 40 | 1011.8 |
| 20260505052234 | 22 | 196 | 1.6 | 1.6 | 0.00 | 0.00 | 0.00 | 39 | 1012.0 |
| 20260505051731 | 22 | 264 | 1.6 | 1.6 | 0.00 | 0.00 | 0.00 | 39 | 1012.3 |
| 20260505051229 | 22 | 240 | 1.6 | 1.6 | 0.00 | 0.00 | 0.00 | 39 | 1012.2 |
| 20260505050727 | 22 | 234 | 1.6 | 1.6 | 0.00 | 0.00 | 0.00 | 38 | 1012.6 |
| 20260505050225 | 22 | 226 | 1.6 | 3.2 | 0.00 | 0.00 | 0.00 | 38 | 1012.5 |
| 20260505041654 | 22 | 264 | 1.6 | 1.6 | 0.00 | 0.00 | 0.00 | 36 | 1012.4 |
| 20260505041152 | 22 | 191 | 1.6 | 3.2 | 0.00 | 0.00 | 0.00 | 36 | 1012.3 |
| 20260505040649 | 22 | 211 | 3.2 | 3.2 | 0.00 | 0.00 | 0.00 | 36 | 1012.3 |
| 20260505040146 | 22 | 210 | 1.6 | 3.2 | 0.00 | 0.00 | 0.00 | 36 | 1012.2 |
| 20260505035642 | 22 | 274 | 1.6 | 1.6 | 0.00 | 0.00 | 0.00 | 35 | 1012.4 |
| 20260505035138 | 22 | 224 | 3.2 | 3.2 | 0.00 | 0.00 | 0.00 | 36 | 1012.3 |
| 20260505034635 | 22 | 235 | 3.2 | 3.2 | 0.00 | 0.00 | 0.00 | 36 | 1012.0 |
| 20260505034132 | 22 | 224 | 3.2 | 4.8 | 0.00 | 0.00 | 0.00 | 35 | 1011.8 |
| 20260505033628 | 22 | 242 | 3.2 | 3.2 | 0.00 | 0.00 | 0.00 | 35 | 1011.8 |
| 20260505033127 | 22 | 258 | 4.8 | 4.8 | 0.00 | 0.00 | 0.00 | 35 | 1011.6 |
| 20260505032625 | 22 | 251 | 1.6 | 1.6 | 0.00 | 0.00 | 0.00 | 36 | 1011.5 |
| 20260505032121 | 22 | 254 | 3.2 | 4.8 | 0.00 | 0.00 | 0.00 | 36 | 1011.5 |
| 20260505031618 | 22 | 242 | 4.8 | 6.4 | 0.00 | 0.00 | 0.00 | 36 | 1011.6 |
| 20260505031114 | 22 | 240 | 3.2 | 3.2 | 0.00 | 0.00 | 0.00 | 36 | 1011.4 |
| 20260505030612 | 22 | 259 | 3.2 | 4.8 | 0.00 | 0.00 | 0.00 | 36 | 1011.4 |
| 20260505030107 | 22 | 238 | 3.2 | 3.2 | 0.00 | 0.00 | 0.00 | 36 | 1011.4 |
| 20260505025602 | 22 | 261 | 3.2 | 4.8 | 0.00 | 0.00 | 0.00 | 36 | 1011.3 |
| 20260505025057 | 22 | 261 | 4.8 | 4.8 | 0.00 | 0.00 | 0.00 | 36 | 1011.3 |
| 20260505024553 | 22 | 262 | 1.6 | 1.6 | 0.00 | 0.00 | 0.00 | 36 | 1011.3 |
| 20260505024051 | 22 | 223 | 4.8 | 9.7 | 0.00 | 0.00 | 0.00 | 35 | 1011.5 |
| 20260505023548 | 22 | 234 | 1.6 | 1.6 | 0.00 | 0.00 | 0.00 | 35 | 1011.4 |
| 20260505023045 | 22 | 240 | 4.8 | 9.7 | 0.00 | 0.00 | 0.00 | 35 | 1011.5 |
| 20260505022543 | 22 | 254 | 3.2 | 4.8 | 0.00 | 0.00 | 0.00 | 35 | 1011.3 |
| 20260505022040 | 22 | 268 | 1.6 | 3.2 | 0.00 | 0.00 | 0.00 | 34 | 1011.3 |
| 20260505021536 | 22 | 271 | 1.6 | 1.6 | 0.00 | 0.00 | 0.00 | 34 | 1011.0 |
| 20260505021033 | 22 | 252 | 3.2 | 4.8 | 0.00 | 0.00 | 0.00 | 34 | 1011.2 |
| 20260505020532 | 23 | 198 | 6.4 | 9.7 | 0.00 | 0.00 | 0.00 | 34 | 1011.1 |
| 20260505020030 | 23 | 257 | 3.2 | 4.8 | 0.00 | 0.00 | 0.00 | 35 | 1011.2 |
| 20260505015527 | 23 | 266 | 6.4 | 9.7 | 0.00 | 0.00 | 0.00 | 36 | 1011.4 |
| 20260505015024 | 23 | 237 | 8.0 | 9.7 | 0.00 | 0.00 | 0.00 | 36 | 1011.3 |
| 20260505014520 | 23 | 262 | 3.2 | 3.2 | 0.00 | 0.00 | 0.00 | 35 | 1011.2 |
| 20260505014018 | 23 | 272 | 6.4 | 9.7 | 0.00 | 0.00 | 0.00 | 35 | 1011.2 |
| 20260505013515 | 23 | 274 | 4.8 | 6.4 | 0.00 | 0.00 | 0.00 | 35 | 1011.2 |
| 20260505013012 | 23 | 271 | 4.8 | 9.7 | 0.00 | 0.00 | 0.00 | 35 | 1011.4 |
| 20260505012510 | 23 | 316 | 3.2 | 6.4 | 0.00 | 0.00 | 0.00 | 34 | 1011.3 |
| 20260505012007 | 23 | 268 | 9.7 | 12.9 | 0.00 | 0.00 | 0.00 | 36 | 1011.4 |
| 20260505011502 | 23 | 244 | 4.8 | 4.8 | 0.00 | 0.00 | 0.00 | 36 | 1011.1 |
| 20260505011000 | 23 | 259 | 3.2 | 4.8 | 0.00 | 0.00 | 0.00 | 36 | 1011.2 |
| 20260505010455 | 23 | 298 | 8.0 | 11.3 | 0.00 | 0.00 | 0.00 | 35 | 1011.2 |
| 20260505005951 | 23 | 333 | 9.7 | 11.3 | 0.00 | 0.00 | 0.00 | 35 | 1011.2 |
| 20260505005448 | 23 | 228 | 6.4 | 6.4 | 0.00 | 0.00 | 0.00 | 35 | 1011.2 |
| 20260505004946 | 23 | 270 | 4.8 | 6.4 | 0.00 | 0.00 | 0.00 | 35 | 1011.4 |
| 20260505004443 | 23 | 321 | 9.7 | 12.9 | 0.00 | 0.00 | 0.00 | 35 | 1011.4 |
| 20260505003940 | 23 | 266 | 1.6 | 3.2 | 0.00 | 0.00 | 0.00 | 34 | 1011.3 |
| 20260505003437 | 23 | 263 | 3.2 | 4.8 | 0.00 | 0.00 | 0.00 | 34 | 1011.4 |
| 20260505002933 | 23 | 318 | 4.8 | 9.7 | 0.00 | 0.00 | 0.00 | 34 | 1011.5 |
| 20260505002429 | 23 | 288 | 6.4 | 6.4 | 0.00 | 0.00 | 0.00 | 33 | 1011.6 |
| 20260505001928 | 23 | 231 | 6.4 | 9.7 | 0.00 | 0.00 | 0.00 | 33 | 1011.5 |
| 20260505001425 | 24 | 281 | 9.7 | 11.3 | 0.00 | 0.00 | 0.00 | 31 | 1011.4 |
| 20260505000922 | 24 | 249 | 6.4 | 9.7 | 0.00 | 0.00 | 0.00 | 32 | 1011.6 |
| 20260505000420 | 24 | 229 | 8.0 | 11.3 | 0.00 | 0.00 | 0.00 | 33 | 1011.7 |
| 20260504235916 | 24 | 220 | 4.8 | 6.4 | 0.00 | 0.00 | 0.00 | 32 | 1011.4 |
| 20260504235414 | 24 | 281 | 3.2 | 4.8 | 0.00 | 0.00 | 0.00 | 33 | 1011.6 |
| 20260504234910 | 24 | 230 | 8.0 | 11.3 | 0.00 | 0.00 | 0.00 | 32 | 1011.7 |
| 20260504234407 | 24 | 289 | 6.4 | 6.4 | 0.00 | 0.00 | 0.00 | 33 | 1011.7 |
| 20260504233904 | 24 | 284 | 1.6 | 1.6 | 0.00 | 0.00 | 0.00 | 33 | 1011.5 |
| 20260504233359 | 24 | 201 | 4.8 | 9.7 | 0.00 | 0.00 | 0.00 | 33 | 1011.6 |
| 20260504232856 | 25 | 175 | 8.0 | 9.7 | 0.00 | 0.00 | 0.00 | 33 | 1011.7 |
| 20260504232353 | 25 | 245 | 4.8 | 4.8 | 0.00 | 0.00 | 0.00 | 34 | 1011.6 |
| 20260504231850 | 25 | 279 | 1.6 | 3.2 | 0.00 | 0.00 | 0.00 | 33 | 1011.4 |
| 20260504231347 | 24 | 283 | 3.2 | 3.2 | 0.00 | 0.00 | 0.00 | 35 | 1011.8 |
| 20260504230843 | 23 | 257 | 3.2 | 3.2 | 0.00 | 0.00 | 0.00 | 35 | 1011.5 |
| 20260504230341 | 24 | 259 | 4.8 | 4.8 | 0.00 | 0.00 | 0.00 | 35 | 1011.9 |
| 20260504225839 | 24 | 294 | 3.2 | 3.2 | 0.00 | 0.00 | 0.00 | 34 | 1011.7 |
| 20260504225335 | 23 | 247 | 4.8 | 11.3 | 0.00 | 0.00 | 0.00 | 36 | 1011.7 |
| 20260504224833 | 24 | 250 | 4.8 | 6.4 | 0.00 | 0.00 | 0.00 | 37 | 1011.8 |
| 20260504224330 | 24 | 247 | 3.2 | 4.8 | 0.00 | 0.00 | 0.00 | 37 | 1011.8 |
| 20260504223826 | 24 | 253 | 9.7 | 12.9 | 0.00 | 0.00 | 0.00 | 37 | 1011.7 |
| 20260504223322 | 24 | 264 | 6.4 | 6.4 | 0.00 | 0.00 | 0.00 | 36 | 1011.9 |
| 20260504222819 | 23 | 161 | 8.0 | 11.3 | 0.00 | 0.00 | 0.00 | 37 | 1012.0 |
| 20260504222316 | 23 | 207 | 8.0 | 9.7 | 0.00 | 0.00 | 0.00 | 37 | 1011.9 |
| 20260504221814 | 25 | 275 | 6.4 | 6.4 | 0.00 | 0.00 | 0.00 | 37 | 1011.9 |
| 20260504221310 | 25 | 177 | 4.8 | 4.8 | 0.00 | 0.00 | 0.00 | 36 | 1011.9 |
| 20260504220807 | 24 | 195 | 6.4 | 9.7 | 0.00 | 0.00 | 0.00 | 36 | 1012.3 |
| 20260504220304 | 24 | 196 | 3.2 | 6.4 | 0.00 | 0.00 | 0.00 | 36 | 1012.3 |
| 20260504215801 | 24 | 212 | 9.7 | 14.5 | 0.00 | 0.00 | 0.00 | 37 | 1012.7 |
| 20260504215252 | 23 | 266 | 6.4 | 11.3 | 0.00 | 0.00 | 0.00 | 38 | 1012.5 |
| 20260504214748 | 24 | 208 | 9.7 | 11.3 | 0.00 | 0.00 | 0.00 | 38 | 1012.6 |
| 20260504214244 | 24 | 294 | 6.4 | 6.4 | 0.00 | 0.00 | 0.00 | 37 | 1012.8 |
| 20260504213741 | 23 | 182 | 9.7 | 11.3 | 0.00 | 0.00 | 0.00 | 39 | 1013.0 |
| 20260504213238 | 24 | 224 | 4.8 | 4.8 | 0.00 | 0.00 | 0.00 | 37 | 1012.7 |
| 20260504212735 | 23 | 169 | 4.8 | 4.8 | 0.00 | 0.00 | 0.00 | 37 | 1013.0 |
| 20260504212231 | 23 | 227 | 3.2 | 4.8 | 0.00 | 0.00 | 0.00 | 37 | 1013.0 |
| 20260504211729 | 23 | 227 | 11.3 | 16.1 | 0.00 | 0.00 | 0.00 | 37 | 1013.2 |
| 20260504211225 | 23 | 227 | 11.3 | 16.1 | 0.00 | 0.00 | 0.00 | 37 | 1013.2 |
| 20260504210722 | 23 | 244 | 1.6 | 3.2 | 0.00 | 0.00 | 0.00 | 37 | 1013.1 |
| 20260504210214 | 23 | 269 | 4.8 | 4.8 | 0.00 | 0.00 | 0.00 | 38 | 1013.2 |
| 20260504205711 | 23 | 266 | 9.7 | 12.9 | 0.00 | 0.00 | 0.00 | 38 | 1013.2 |
| 20260504205208 | 23 | 205 | 3.2 | 3.2 | 0.00 | 0.00 | 0.00 | 37 | 1013.2 |
| 20260504204706 | 23 | 232 | 6.4 | 9.7 | 0.00 | 0.00 | 0.00 | 36 | 1013.6 |
| 20260504204205 | 23 | 254 | 3.2 | 3.2 | 0.00 | 0.00 | 0.00 | 36 | 1013.4 |
| 20260504203703 | 23 | 207 | 3.2 | 4.8 | 0.00 | 0.00 | 0.00 | 35 | 1013.4 |
| 20260504203200 | 23 | 285 | 3.2 | 4.8 | 0.00 | 0.00 | 0.00 | 36 | 1013.2 |
| 20260504202654 | 24 | 250 | 14.5 | 16.1 | 0.00 | 0.00 | 0.00 | 35 | 1013.6 |
| 20260504202152 | 24 | 186 | 9.7 | 12.9 | 0.00 | 0.00 | 0.00 | 35 | 1013.6 |
| 20260504201649 | 23 | 226 | 4.8 | 4.8 | 0.00 | 0.00 | 0.00 | 35 | 1013.6 |
| 20260504201146 | 23 | 289 | 6.4 | 9.7 | 0.00 | 0.00 | 0.00 | 36 | 1013.6 |
| 20260504200643 | 23 | 238 | 4.8 | 6.4 | 0.00 | 0.00 | 0.00 | 37 | 1013.5 |
| 20260504200140 | 23 | 205 | 11.3 | 17.7 | 0.00 | 0.00 | 0.00 | 36 | 1013.6 |
| 20260504195636 | 23 | 253 | 9.7 | 11.3 | 0.00 | 0.00 | 0.00 | 36 | 1013.6 |
| 20260504195132 | 23 | 281 | 3.2 | 4.8 | 0.00 | 0.00 | 0.00 | 38 | 1013.6 |
| 20260504194629 | 23 | 220 | 11.3 | 14.5 | 0.00 | 0.00 | 0.00 | 38 | 1013.2 |
| 20260504194125 | 23 | 206 | 6.4 | 11.3 | 0.00 | 0.00 | 0.00 | 39 | 1013.4 |
| 20260504193622 | 23 | 276 | 1.6 | 3.2 | 0.00 | 0.00 | 0.00 | 40 | 1013.5 |
| 20260504193120 | 23 | 278 | 6.4 | 6.4 | 0.00 | 0.00 | 0.00 | 40 | 1013.4 |
| 20260504192618 | 23 | 201 | 6.4 | 9.7 | 0.00 | 0.00 | 0.00 | 39 | 1013.2 |
| 20260504192116 | 23 | 260 | 3.2 | 4.8 | 0.00 | 0.00 | 0.00 | 40 | 1013.3 |
| 20260504191614 | 22 | 227 | 3.2 | 4.8 | 0.00 | 0.00 | 0.00 | 40 | 1013.5 |
| 20260504191110 | 23 | 241 | 3.2 | 3.2 | 0.00 | 0.00 | 0.00 | 40 | 1013.0 |
| 20260504190606 | 22 | 221 | 4.8 | 4.8 | 0.00 | 0.00 | 0.00 | 40 | 1012.9 |
| 20260504185559 | 22 | 223 | 1.6 | 3.2 | 0.00 | 0.00 | 0.00 | 41 | 1013.4 |
| 20260504185055 | 22 | 248 | 4.8 | 6.4 | 0.00 | 0.00 | 0.00 | 42 | 1013.5 |
| 20260504184551 | 22 | 224 | 6.4 | 6.4 | 0.00 | 0.00 | 0.00 | 41 | 1013.5 |
| 20260504184041 | 22 | 289 | 6.4 | 9.7 | 0.00 | 0.00 | 0.00 | 42 | 1013.8 |
| 20260504183538 | 22 | 294 | 6.4 | 11.3 | 0.00 | 0.00 | 0.00 | 43 | 1013.8 |
| 20260504183036 | 22 | 247 | 4.8 | 4.8 | 0.00 | 0.00 | 0.00 | 42 | 1013.9 |
| 20260504182533 | 22 | 276 | 4.8 | 4.8 | 0.00 | 0.00 | 0.00 | 43 | 1013.8 |
| 20260504182031 | 22 | 271 | 4.8 | 6.4 | 0.00 | 0.00 | 0.00 | 42 | 1013.7 |
| 20260504181527 | 22 | 245 | 8.0 | 9.7 | 0.00 | 0.00 | 0.00 | 43 | 1013.8 |
| 20260504181026 | 22 | 262 | 9.7 | 11.3 | 0.00 | 0.00 | 0.00 | 42 | 1013.8 |
| 20260504180524 | 22 | 278 | 3.2 | 4.8 | 0.00 | 0.00 | 0.00 | 44 | 1013.8 |
| 20260504180023 | 21 | 314 | 6.4 | 9.7 | 0.00 | 0.00 | 0.00 | 45 | 1013.8 |
| 20260504175519 | 22 | 306 | 4.8 | 9.7 | 0.00 | 0.00 | 0.00 | 45 | 1014.1 |
| 20260504175017 | 22 | 243 | 4.8 | 6.4 | 0.00 | 0.00 | 0.00 | 46 | 1013.8 |
| 20260504174514 | 21 | 202 | 8.0 | 9.7 | 0.00 | 0.00 | 0.00 | 46 | 1013.9 |
| 20260504174011 | 22 | 279 | 8.0 | 9.7 | 0.00 | 0.00 | 0.00 | 46 | 1013.8 |
| 20260504173508 | 22 | 264 | 4.8 | 4.8 | 0.00 | 0.00 | 0.00 | 46 | 1013.7 |
| 20260504173005 | 21 | 277 | 3.2 | 4.8 | 0.00 | 0.00 | 0.00 | 47 | 1013.3 |
| 20260504172501 | 21 | 257 | 0.0 | 1.6 | 0.00 | 0.00 | 0.00 | 48 | 1013.2 |
| 20260504171957 | 21 | 244 | 4.8 | 4.8 | 0.00 | 0.00 | 0.00 | 48 | 1013.1 |
| 20260504171454 | 21 | 183 | 3.2 | 4.8 | 0.00 | 0.00 | 0.00 | 48 | 1013.1 |
| 20260504170951 | 21 | 206 | 4.8 | 4.8 | 0.00 | 0.00 | 0.00 | 48 | 1013.2 |
| 20260504170447 | 21 | 193 | 8.0 | 12.9 | 0.00 | 0.00 | 0.00 | 48 | 1013.2 |
| 20260504160408 | 21 | 223 | 3.2 | 3.2 | 0.00 | 0.00 | 0.00 | 48 | 1013.4 |
| 20260504150832 | 21 | 231 | 6.4 | 9.7 | 0.00 | 0.00 | 0.00 | 45 | 1012.9 |
| 20260504150328 | 21 | 228 | 4.8 | 6.4 | 0.00 | 0.00 | 0.00 | 44 | 1012.9 |